User: anonymous   Login
Location: Camp Creek
(33.9000°N, 111.8167°W)
Time: 23:47:50
(UTC-07:00)
Language:

DELTA 2 R/B (1) - Orbit

View from above orbital plane
View from above orbital plane
View from above satellite
View from above satellite

Ground track
Ground track

The orbit data is extracted from the following two-line orbital elements,

1 27665U 03005C   17266.65755456 +.00000029 +00000-0 +45292-4 0  9996
2 27665 039.5768 328.8703 0008294 194.4218 300.5823 14.28453982764924
Epoch (UTC): 23 September 2017 15:46:52
Eccentricity: 0.0008294
inclination: 39.5768°
perigee height: 791 km
apogee height: 803 km
right ascension of ascending node: 328.8703°
argument of perigee: 194.4218°
revolutions per day: 14.28453982
mean anomaly at epoch: 300.5823°
orbit number at epoch: 76492

The dashed part of the orbit path shows where the satellite is in the earth's shadow,  

DLR